Time,TemperatureF,DewpointF,PressureIn,WindDirection,WindDirectionDegrees,WindSpeedMPH,WindSpeedGustMPH,Humidity,HourlyPrecipIn,Conditions,Clouds,dailyrainin,SolarRadiationWatts/m^2,SoftwareType,DateUTC
2013-04-02 00:22:00,18.0,13.0,-100.00,SW,235,5.0,7.0,80,0.00,,,0.00,0.000000,,2013-04-02 05:22:00,
2013-04-02 00:32:00,18.0,13.0,-100.00,SW,235,5.0,7.0,80,0.00,,,0.00,0.000000,,2013-04-02 05:32:00,
2013-04-02 00:42:00,18.0,13.0,-100.00,SW,235,5.0,7.0,80,0.00,,,0.00,0.000000,,2013-04-02 05:42:00,
2013-04-02 00:52:00,18.0,13.0,-100.00,SW,235,5.0,7.0,80,0.00,,,0.00,0.000000,,2013-04-02 05:52:00,
2013-04-02 01:22:00,16.0,12.0,-100.00,WSW,247,8.0,8.0,83,0.00,,,0.00,0.000000,,2013-04-02 06:22:00,
2013-04-02 01:32:00,16.0,12.0,-100.00,WSW,247,8.0,8.0,83,0.00,,,0.00,0.000000,,2013-04-02 06:32:00,
2013-04-02 01:42:00,16.0,12.0,-100.00,WSW,247,8.0,8.0,83,0.00,,,0.00,0.000000,,2013-04-02 06:42:00,
2013-04-02 01:52:00,16.0,12.0,-100.00,WSW,247,8.0,8.0,83,0.00,,,0.00,0.000000,,2013-04-02 06:52:00,
2013-04-02 02:22:00,18.0,12.0,-100.00,West,260,7.0,8.0,77,0.00,,,0.00,0.000000,,2013-04-02 07:22:00,
2013-04-02 02:32:00,18.0,12.0,-100.00,West,260,7.0,8.0,77,0.00,,,0.00,0.000000,,2013-04-02 07:32:00,
2013-04-02 02:42:00,18.0,12.0,-100.00,West,260,7.0,8.0,77,0.00,,,0.00,0.000000,,2013-04-02 07:42:00,
2013-04-02 02:52:00,18.0,12.0,-100.00,West,260,7.0,8.0,77,0.00,,,0.00,0.000000,,2013-04-02 07:52:00,
2013-04-02 03:22:00,18.0,12.0,-100.00,West,266,9.0,9.0,76,0.00,,,0.00,0.000000,,2013-04-02 08:22:00,
2013-04-02 03:32:00,18.0,12.0,-100.00,West,266,9.0,9.0,76,0.00,,,0.00,0.000000,,2013-04-02 08:32:00,
2013-04-02 03:42:00,18.0,12.0,-100.00,West,266,9.0,9.0,76,0.00,,,0.00,0.000000,,2013-04-02 08:42:00,
2013-04-02 03:52:00,18.0,12.0,-100.00,West,266,9.0,9.0,76,0.00,,,0.00,0.000000,,2013-04-02 08:52:00,
2013-04-02 04:22:00,18.0,11.0,-100.00,West,278,9.0,10.0,74,0.00,,,0.00,0.000000,,2013-04-02 09:22:00,
2013-04-02 04:32:00,18.0,11.0,-100.00,West,278,9.0,10.0,74,0.00,,,0.00,0.000000,,2013-04-02 09:32:00,
2013-04-02 04:43:00,18.0,11.0,-100.00,West,278,9.0,10.0,74,0.00,,,0.00,0.000000,,2013-04-02 09:43:00,
2013-04-02 04:52:00,18.0,11.0,-100.00,West,278,9.0,10.0,74,0.00,,,0.00,0.000000,,2013-04-02 09:52:00,
2013-04-02 05:23:00,19.0,12.0,-100.00,WNW,288,8.0,9.0,74,0.00,,,-99.99,0.000000,,2013-04-02 10:23:00,
2013-04-02 05:33:00,19.0,12.0,-100.00,WNW,288,8.0,9.0,74,0.00,,,-99.99,0.000000,,2013-04-02 10:33:00,
2013-04-02 05:42:00,19.0,12.0,-100.00,WNW,288,8.0,9.0,74,0.00,,,-99.99,0.000000,,2013-04-02 10:42:00,
2013-04-02 05:52:00,19.0,12.0,-100.00,WNW,288,8.0,9.0,74,0.00,,,-99.99,0.000000,,2013-04-02 10:52:00,
2013-04-02 06:22:00,20.0,14.0,-100.00,WNW,298,7.0,9.0,77,0.00,,,0.00,0.000000,,2013-04-02 11:22:00,
2013-04-02 06:33:00,20.0,14.0,-100.00,WNW,298,7.0,9.0,77,0.00,,,0.00,0.000000,,2013-04-02 11:33:00,
2013-04-02 06:43:00,20.0,14.0,-100.00,WNW,298,7.0,9.0,77,0.00,,,0.00,0.000000,,2013-04-02 11:43:00,
2013-04-02 06:52:00,20.0,14.0,-100.00,WNW,298,7.0,9.0,77,0.00,,,0.00,0.000000,,2013-04-02 11:52:00,
2013-04-02 07:23:00,20.0,12.0,-100.00,NNW,339,6.0,7.0,70,0.00,,,0.00,0.000000,,2013-04-02 12:23:00,
2013-04-02 07:32:00,20.0,12.0,-100.00,NNW,339,6.0,7.0,70,0.00,,,0.00,0.000000,,2013-04-02 12:32:00,
2013-04-02 07:42:00,20.0,12.0,-100.00,NNW,339,6.0,7.0,70,0.00,,,0.00,0.000000,,2013-04-02 12:42:00,
2013-04-02 07:52:00,20.0,12.0,-100.00,NNW,339,6.0,7.0,70,0.00,,,0.00,0.000000,,2013-04-02 12:52:00,
2013-04-02 08:22:00,19.0,13.0,-100.00,NE,56,5.0,7.0,77,0.00,,,0.00,42.000000,,2013-04-02 13:22:00,
2013-04-02 08:33:00,19.0,13.0,-100.00,NE,56,5.0,7.0,77,0.00,,,0.00,42.000000,,2013-04-02 13:33:00,
2013-04-02 08:42:00,19.0,13.0,-100.00,NE,56,5.0,7.0,77,0.00,,,0.00,42.000000,,2013-04-02 13:42:00,
2013-04-02 08:52:00,19.0,13.0,-100.00,NE,56,5.0,7.0,77,0.00,,,0.00,42.000000,,2013-04-02 13:52:00,
2013-04-02 09:23:00,21.0,15.0,-100.00,East,84,7.0,9.0,76,0.00,,,0.00,114.000000,,2013-04-02 14:23:00,
2013-04-02 09:32:00,21.0,15.0,-100.00,East,84,7.0,9.0,76,0.00,,,0.00,114.000000,,2013-04-02 14:32:00,
2013-04-02 09:42:00,21.0,15.0,-100.00,East,84,7.0,9.0,76,0.00,,,0.00,114.000000,,2013-04-02 14:42:00,
2013-04-02 09:52:00,21.0,15.0,-100.00,East,84,7.0,9.0,76,0.00,,,0.00,114.000000,,2013-04-02 14:52:00,
2013-04-02 10:22:00,23.0,16.0,-100.00,East,89,9.0,11.0,75,0.00,,,0.00,62.000000,,2013-04-02 15:22:00,
2013-04-02 10:33:00,23.0,16.0,-100.00,East,89,9.0,11.0,75,0.00,,,0.00,62.000000,,2013-04-02 15:33:00,
2013-04-02 10:43:00,23.0,16.0,-100.00,East,89,9.0,11.0,75,0.00,,,0.00,62.000000,,2013-04-02 15:43:00,
2013-04-02 10:55:00,23.0,16.0,-100.00,East,89,9.0,11.0,75,0.00,,,0.00,62.000000,,2013-04-02 15:55:00,
2013-04-02 11:24:00,25.0,15.0,-100.00,East,88,8.0,11.0,66,0.00,,,0.00,452.000000,,2013-04-02 16:24:00,
2013-04-02 11:36:00,25.0,15.0,-100.00,East,88,8.0,11.0,66,0.00,,,0.00,452.000000,,2013-04-02 16:36:00,
2013-04-02 11:43:00,25.0,15.0,-100.00,East,88,8.0,11.0,66,0.00,,,0.00,452.000000,,2013-04-02 16:43:00,
2013-04-02 12:25:00,30.0,18.0,-100.00,ESE,102,5.0,8.0,61,0.00,,,-99.99,826.000000,,2013-04-02 17:25:00,
2013-04-02 12:34:00,30.0,18.0,-100.00,ESE,102,5.0,8.0,61,0.00,,,-99.99,826.000000,,2013-04-02 17:34:00,
2013-04-02 12:43:00,30.0,18.0,-100.00,ESE,102,5.0,8.0,61,0.00,,,-99.99,826.000000,,2013-04-02 17:43:00,
2013-04-02 12:54:00,30.0,18.0,-100.00,ESE,102,5.0,8.0,61,0.00,,,-99.99,826.000000,,2013-04-02 17:54:00,
2013-04-02 13:23:00,31.0,13.0,-100.00,ESE,102,6.0,10.0,46,0.00,,,0.00,888.000000,,2013-04-02 18:23:00,
2013-04-02 13:34:00,31.0,13.0,-100.00,ESE,102,6.0,10.0,46,0.00,,,0.00,888.000000,,2013-04-02 18:34:00,
2013-04-02 13:43:00,31.0,13.0,-100.00,ESE,102,6.0,10.0,46,0.00,,,0.00,888.000000,,2013-04-02 18:43:00,
2013-04-02 13:54:00,31.0,13.0,-100.00,ESE,102,6.0,10.0,46,0.00,,,0.00,888.000000,,2013-04-02 18:54:00,
2013-04-02 14:23:00,30.0,11.0,-100.00,ENE,76,11.0,15.0,45,0.00,,,0.00,926.000000,,2013-04-02 19:23:00,
2013-04-02 14:34:00,30.0,11.0,-100.00,ENE,76,11.0,15.0,45,0.00,,,0.00,926.000000,,2013-04-02 19:34:00,
2013-04-02 14:45:00,30.0,11.0,-100.00,ENE,76,11.0,15.0,45,0.00,,,0.00,926.000000,,2013-04-02 19:45:00,
2013-04-02 14:53:00,30.0,11.0,-100.00,ENE,76,11.0,15.0,45,0.00,,,0.00,926.000000,,2013-04-02 19:53:00,
2013-04-02 15:22:00,29.0,9.0,-100.00,East,87,11.0,14.0,43,0.00,,,0.00,886.000000,,2013-04-02 20:22:00,
2013-04-02 15:33:00,29.0,9.0,-100.00,East,87,11.0,14.0,43,0.00,,,0.00,886.000000,,2013-04-02 20:33:00,
2013-04-02 15:44:00,29.0,9.0,-100.00,East,87,11.0,14.0,43,0.00,,,0.00,886.000000,,2013-04-02 20:44:00,
2013-04-02 15:53:00,29.0,9.0,-100.00,East,87,11.0,14.0,43,0.00,,,0.00,886.000000,,2013-04-02 20:53:00,
2013-04-02 16:23:00,29.0,11.0,-100.00,East,84,11.0,14.0,47,0.00,,,0.00,783.000000,,2013-04-02 21:23:00,
2013-04-02 16:34:00,29.0,11.0,-100.00,East,84,11.0,14.0,47,0.00,,,0.00,783.000000,,2013-04-02 21:34:00,
2013-04-02 16:44:00,29.0,11.0,-100.00,East,84,11.0,14.0,47,0.00,,,0.00,783.000000,,2013-04-02 21:44:00,
2013-04-02 16:54:00,29.0,11.0,-100.00,East,84,11.0,14.0,47,0.00,,,0.00,783.000000,,2013-04-02 21:54:00,
2013-04-02 17:24:00,29.0,14.0,-100.00,East,91,12.0,15.0,53,0.00,,,0.00,637.000000,,2013-04-02 22:24:00,
2013-04-02 17:33:00,29.0,14.0,-100.00,East,91,12.0,15.0,53,0.00,,,0.00,637.000000,,2013-04-02 22:33:00,
2013-04-02 17:43:00,29.0,14.0,-100.00,East,91,12.0,15.0,53,0.00,,,0.00,637.000000,,2013-04-02 22:43:00,
2013-04-02 17:53:00,29.0,14.0,-100.00,East,91,12.0,15.0,53,0.00,,,0.00,637.000000,,2013-04-02 22:53:00,
2013-04-02 18:23:00,27.0,13.0,-100.00,ESE,104,12.0,15.0,55,0.00,,,0.00,459.000000,,2013-04-02 23:23:00,
2013-04-02 18:35:00,27.0,13.0,-100.00,ESE,104,12.0,15.0,55,0.00,,,0.00,459.000000,,2013-04-02 23:35:00,
2013-04-02 18:43:00,27.0,13.0,-100.00,ESE,104,12.0,15.0,55,0.00,,,0.00,459.000000,,2013-04-02 23:43:00,
2013-04-02 18:52:00,27.0,13.0,-100.00,ESE,104,12.0,15.0,55,0.00,,,0.00,459.000000,,2013-04-02 23:52:00,
2013-04-02 19:24:00,26.0,13.0,-100.00,ESE,102,11.0,15.0,57,0.00,,,0.00,258.000000,,2013-04-03 00:24:00,
2013-04-02 19:33:00,26.0,13.0,-100.00,ESE,102,11.0,15.0,57,0.00,,,0.00,258.000000,,2013-04-03 00:33:00,
2013-04-02 19:53:00,26.0,13.0,-100.00,ESE,102,11.0,15.0,57,0.00,,,0.00,258.000000,,2013-04-03 00:53:00,
2013-04-02 20:22:00,22.0,13.0,-100.00,ESE,115,8.0,13.0,67,0.00,,,0.00,62.000000,,2013-04-03 01:22:00,
2013-04-02 20:33:00,22.0,13.0,-100.00,ESE,115,8.0,13.0,67,0.00,,,0.00,62.000000,,2013-04-03 01:33:00,
2013-04-02 20:42:00,22.0,13.0,-100.00,ESE,115,8.0,13.0,67,0.00,,,0.00,62.000000,,2013-04-03 01:42:00,
2013-04-02 20:52:00,22.0,13.0,-100.00,ESE,115,8.0,13.0,67,0.00,,,0.00,62.000000,,2013-04-03 01:52:00,
2013-04-02 21:24:00,19.0,12.0,-100.00,ESE,122,8.0,10.0,75,0.00,,,0.00,1.000000,,2013-04-03 02:24:00,
2013-04-02 21:34:00,19.0,12.0,-100.00,ESE,122,8.0,10.0,75,0.00,,,0.00,1.000000,,2013-04-03 02:34:00,
2013-04-02 21:43:00,19.0,12.0,-100.00,ESE,122,8.0,10.0,75,0.00,,,0.00,1.000000,,2013-04-03 02:43:00,
2013-04-02 21:52:00,19.0,12.0,-100.00,ESE,122,8.0,10.0,75,0.00,,,0.00,1.000000,,2013-04-03 02:52:00,
2013-04-02 22:23:00,20.0,12.0,-100.00,ESE,112,8.0,11.0,72,0.00,,,0.00,0.000000,,2013-04-03 03:23:00,
2013-04-02 22:37:00,20.0,12.0,-100.00,ESE,112,8.0,11.0,72,0.00,,,0.00,0.000000,,2013-04-03 03:37:00,
2013-04-02 22:43:00,20.0,12.0,-100.00,ESE,112,8.0,11.0,72,0.00,,,0.00,0.000000,,2013-04-03 03:43:00,
2013-04-02 22:53:00,20.0,12.0,-100.00,ESE,112,8.0,11.0,72,0.00,,,0.00,0.000000,,2013-04-03 03:53:00,
2013-04-02 23:23:00,19.0,14.0,-100.00,SE,132,8.0,10.0,80,0.00,,,0.00,0.000000,,2013-04-03 04:23:00,
2013-04-02 23:33:00,19.0,14.0,-100.00,SE,132,8.0,10.0,80,0.00,,,0.00,0.000000,,2013-04-03 04:33:00,
2013-04-02 23:43:00,19.0,14.0,-100.00,SE,132,8.0,10.0,80,0.00,,,0.00,0.000000,,2013-04-03 04:43:00,
2013-04-02 23:53:00,19.0,14.0,-100.00,SE,132,8.0,10.0,80,0.00,,,0.00,0.000000,,2013-04-03 04:53:00,